Orbital Elements at Epoch 2459200.5 (2020-Dec-17.0) TDB
Reference: JPL 14 (heliocentric ecliptic J2000)
Element | Value | Uncertainty (1-sigma) | Units |
e | .22881740237807 | 5.21e-08 | |
a | 3.085566230596727 | 2.5362e-08 | au |
q | 2.379534980846091 | 1.6127e-07 | au |
i | 17.11664646086634 | 6.1066e-06 | deg |
node | 126.3485121926271 | 1.7077e-05 | deg |
peri | 210.1417263306275 | 2.0438e-05 | deg |
M | 280.9287279630148 | 1.2105e-05 | deg |
tp | 2459635.327458166935 (2022-Feb-24.82745817) | 6.9883e-05 | TDB |
period | 1979.706167707493 5.42 | 2.4408e-05 6.683e-08 | d yr |
n | .1818451676679278 | 2.242e-09 | deg/d |
Q | 3.791597480347363 | 3.1165e-08 | au |
|
| | Orbit Determination Parameters
Additional Information
|